Location: Bradley Quarters
(33.5209°N, 92.1411°W)
Time: 16:26:14
(UTC+00:00)

Envisat - Visible Passes

Search period start: 05 March 2021 00:00
Search period end: 15 March 2021 00:00
Orbit: 764 x 766 km, 98.1° (Epoch: 05 March)

Date Brightness Start Highest point End Pass type
(mag) Time Alt. Az. Time Alt. Az. Time Alt. Az.
05 Mar 6.0 10:32:53 10° ENE 10:35:34 14° E 10:38:13 10° SE visible
06 Mar 3.5 11:33:01 10° NNE 11:38:04 65° E 11:43:05 10° S visible
07 Mar 5.2 10:56:53 10° NE 11:01:08 27° E 11:05:23 10° SSE visible
08 Mar 6.3 10:23:05 10° E 10:24:02 10° E 10:24:58 10° ESE visible
08 Mar 3.0 11:58:23 10° N 12:03:26 68° WNW 12:08:28 10° SSW visible
09 Mar 4.0 11:21:42 10° NNE 11:26:38 49° E 11:31:31 10° S visible
10 Mar 5.6 10:45:54 10° NE 10:49:38 21° E 10:53:22 10° SE visible
11 Mar 3.0 11:46:55 10° NNE 11:52:01 88° WNW 11:57:06 10° SSW visible
12 Mar 4.6 11:10:27 10° NNE 11:15:10 38° E 11:19:51 10° SSE visible
13 Mar 6.0 10:35:07 10° ENE 10:38:08 16° E 10:41:08 10° SE visible
14 Mar 3.3 11:35:31 10° NNE 11:40:36 71° ESE 11:45:39 10° S visible
